Location: Newark
(18.8808°N, 99.0693°W)
Time: 20:29:38
(UTC+00:00)

Hubble Space Telescope - Visible Passes

Search period start: 22 July 2019 00:00
Search period end: 01 August 2019 00:00
Orbit: 536 x 540 km, 28.5° (Epoch: 22 July)

Date Brightness Start Highest point End Pass type
(mag) Time Alt. Az. Time Alt. Az. Time Alt. Az.
22 Jul 2.2 11:06:26 16° SSW 11:08:49 27° SSE 11:12:21 10° E visible
23 Jul 1.7 10:56:34 25° SSW 10:58:15 37° SSE 11:02:04 10° E visible
24 Jul 1.2 10:46:39 39° SSW 10:47:42 50° SSE 10:51:42 10° ENE visible
25 Jul 0.7 10:36:43 62° SSW 10:37:09 69° SSE 10:41:16 10° ENE visible
26 Jul 0.7 10:26:44 85° ENE 10:26:44 85° ENE 10:30:45 10° ENE visible
27 Jul 1.3 10:16:44 57° NNE 10:16:44 57° NNE 10:20:13 10° ENE visible
28 Jul 2.0 10:06:42 40° NNE 10:06:42 40° NNE 10:09:39 10° ENE visible
28 Jul 2.6 11:43:49 10° WNW 11:47:11 23° N 11:50:32 10° NE visible
29 Jul 2.6 09:56:40 29° NNE 09:56:40 29° NNE 09:59:04 10° NE visible
29 Jul 2.8 11:33:31 10° WNW 11:36:47 22° N 11:40:02 10° NE visible
30 Jul 3.1 09:46:38 22° NE 09:46:38 22° NE 09:48:28 10° NE visible
30 Jul 2.9 11:23:11 10° NW 11:26:23 21° N 11:29:34 10° NE visible
31 Jul 3.5 09:36:38 17° NE 09:36:38 17° NE 09:37:53 10° NE visible
31 Jul 2.9 11:12:49 10° NW 11:15:59 21° N 11:19:09 10° NE visible
